www.pogodaiklimat.ru

Погода и климат >> Архив погоды >> Австралия >> Tibooburra Airport


ПОГОДА в Tibooburra Airport

  • Прогноз погоды в Tibooburra Airport
  • Монитор погоды в Tibooburra Airport
  • Климат города

АРХИВ ПОГОДЫ в Tibooburra Airport

Время (UTC), дата Ветер
(напр.,м/с)
 
Видим.   Явления Облачность Т
(С)
Тd
(С)
f
(%)
Тe
(С)
Тes
(С)
Комфортность P
(гПа)
Po
(гПа)
Тmin
(С)
Tmax
(С)
R
(мм)
R24
(мм)
S
(см)
08 10.12 Ю 9 н/о н/о +39.2 -1.1 8 +35 +35 очень
жарко
1007.4 987.5
07 10.12 Ю 3 н/о н/о +39.6 -2.6 7 +36 +36 очень
жарко
1007.0 987.1
09 10.12 Ю 10 н/о н/о +36.3 +3.5 13 +33 +33 жарко 1008.5 988.6
10 10.12 ЮВ 10 н/о н/о +34.1 +7.2 19 +32 +32 жарко 1009.6 989.7
11 10.12 ЮВ 8 н/о н/о +33.3 +7.3 20 +32 +32 жарко 1010.3 990.3
12 10.12 ЮВ 8 н/о н/о +32.5 +7.4 21 +31 +31 жарко 1010.6 990.6
14 10.12 ЮВ 6 н/о н/о +31.5 +7.2 22 +30 +30 жарко 1010.2 990.2
13 10.12 ЮВ 6 н/о н/о +31.8 +6.8 21 +30 +30 жарко 1010.3 990.3 +41.7
15 10.12 ЮВ 6 н/о н/о +31.2 +7.6 23 +30 +30 жарко 1010.2 990.2
16 10.12 Ю 7 н/о н/о +30.6 +7.7 24 +30 +30 жарко 1009.7 989.8
17 10.12 ЮВ 7 н/о н/о +29.5 +8.5 27 +29 +29 жарко 1009.1 989.2
18 10.12 Ю 7 н/о н/о +29.0 +8.7 28 +29 +29 жарко 1009.4 989.5
20 10.12 ЮВ 8 н/о н/о +28.7 +8.9 29 +28 +28 жарко 1010.2 990.2
19 10.12 Ю 8 н/о н/о +28.8 +8.5 28 +28 +28 жарко 1009.3 989.4
21 10.12 ЮВ 10 н/о н/о +29.7 +8.7 27 +29 +29 жарко 1010.2 990.2
22 10.12 В 11 н/о н/о +30.4 +7.6 24 +29 +29 жарко 1010.8 990.8
23 10.12 В 10 н/о н/о +33.2 +6.5 19 +31 +31 жарко 1010.5 990.5
00 11.12 В 7 н/о н/о +35.3 +4.8 15 +33 +33 жарко 1010.1 990.1
02 11.12 СВ 3 н/о н/о +37.6 +0.8 10 +34 +34 очень
жарко
1008.7 988.8
01 11.12 ЮВ 3 н/о н/о +36.9 +2.8 12 +34 +34 очень
жарко
1009.4 989.5 +28.5
03 11.12 С 4 н/о н/о +38.9 +0.3 9 +35 +35 очень
жарко
1007.9 988.0
04 11.12 ЮЗ 5 н/о н/о +39.6 +0.9 9 +36 +36 очень
жарко
1006.6 986.7
05 11.12 З 3 н/о н/о +39.7 +0.9 9 +36 +36 очень
жарко
1005.9 986.0
06 11.12 З 3 н/о н/о +39.4 -0.9 8 +36 +36 очень
жарко
1005.2 985.3
08 11.12 Ю 6 н/о н/о +38.6 +1.6 10 +35 +35 очень
жарко
1005.1 985.2
07 11.12 Ю 5 н/о н/о +39.5 +0.8 9 +36 +36 очень
жарко
1004.8 985.0
09 11.12 Ю 8 н/о н/о +37.8 +1.0 10 +34 +34 очень
жарко
1005.7 985.8
10 11.12 Ю 9 н/о н/о +36.3 +3.5 13 +33 +33 жарко 1006.2 986.3
11 11.12 Ю 6 н/о н/о +35.4 +3.9 14 +32 +32 жарко 1006.6 986.7
12 11.12 ЮВ 7 н/о н/о +34.7 +5.2 16 +32 +32 жарко 1006.5 986.6
14 11.12 В 7 н/о н/о +33.0 +6.3 19 +31 +31 жарко 1005.9 986.0
13 11.12 ЮВ 7 н/о н/о +33.6 +6.0 18 +31 +31 жарко 1006.5 986.6 +42.1
15 11.12 ЮВ 5 н/о н/о +31.3 +10.6 28 +31 +31 жарко 1005.6 985.7
16 11.12 В 6 н/о н/о +31.8 +7.5 22 +30 +30 жарко 1004.6 984.8
17 11.12 В 5 н/о н/о +31.3 +7.7 23 +30 +30 жарко 1004.5 984.7
18 11.12 В 5 н/о н/о +30.6 +8.9 26 +30 +30 жарко 1004.3 984.5
20 11.12 В 6 н/о н/о +27.6 +15.3 47 +30 +30 жарко 1005.0 985.1
19 11.12 В 5 н/о н/о +29.5 +11.1 32 +30 +30 жарко 1004.3 984.5
21 11.12 ЮВ 4 н/о н/о +28.1 +16.7 50 +32 +32 душно 1005.9 986.0
22 11.12 В 7 н/о в посл. час дождь {туман} н/о +29.6 +13.4 37 +31 +31 жарко 1005.7 985.8
23 11.12 В 6 н/о н/о +32.6 +11.7 28 +33 +33 жарко 1005.1 985.2
00 12.12 СВ 8 н/о н/о +35.4 +9.0 20 +34 +34 очень
жарко
1004.3 984.5
02 12.12 СВ 5 н/о н/о +40.3 +5.4 12 +37 +37 очень
жарко
1002.8 983.0
01 12.12 СВ 6 н/о н/о +37.5 +6.5 15 +35 +35 очень
жарко
1003.7 983.9 +26.0
03 12.12 СЗ 4 н/о н/о +40.8 +1.7 9 +37 +37 очень
жарко
1002.0 982.2
04 12.12 СЗ 5 н/о н/о +41.0 +1.9 9 +37 +37 очень
жарко
1000.9 981.1
05 12.12 З 10 н/о н/о +40.9 +0.2 8 +37 +37 очень
жарко
1000.1 980.3
06 12.12 ЮЗ 13 н/о н/о +39.7 +5.0 12 +37 +37 очень
жарко
1000.2 980.4
08 12.12 ЮЗ 11 н/о н/о +35.8 +6.1 16 +33 +33 жарко 1000.8 981.0
07 12.12 ЮЗ 12 н/о н/о +37.3 +5.3 14 +35 +35 очень
жарко
1000.3 980.5
09 12.12 Ю 9 н/о н/о +34.4 +7.5 19 +33 +33 жарко 1001.1 981.3
10 12.12 Ю 6 н/о н/о +34.2 +6.5 18 +32 +32 жарко 1001.8 982.0
11 12.12 Ю 3 н/о н/о +33.4 +7.4 20 +32 +32 жарко 1002.0 982.2
12 12.12 Ю 2 н/о н/о +32.1 +7.0 21 +30 +30 жарко 1002.6 982.8
14 12.12 ЮВ 2 н/о н/о +30.6 +7.1 23 +29 +29 жарко 1002.7 982.9
13 12.12 Ю 3 н/о н/о +31.0 +6.8 22 +30 +30 жарко 1002.7 982.9 +42.0
15 12.12 СЗ 2 н/о н/о +30.2 +8.6 26 +30 +30 жарко 1002.1 982.3
16 12.12 С 4 н/о н/о +29.5 +10.6 31 +30 +30 жарко 1001.4 981.6
17 12.12 С 5 н/о н/о +29.1 +10.3 31 +29 +29 жарко 1000.9 981.1
18 12.12 СЗ 5 н/о н/о +28.7 +10.4 32 +29 +29 жарко 1000.4 980.6
20 12.12 З 11 н/о н/о +29.0 +8.1 27 +28 +28 жарко 1001.9 982.1
19 12.12 СЗ 5 н/о н/о +29.1 +10.3 31 +29 +29 жарко 1000.6 980.8
21 12.12 З 6 н/о н/о +21.7 +18.5 82 +26 +26 душно 1003.4 983.6
22 12.12 ЮЗ 9 н/о {туман} н/о +23.0 +19.8 82 +30 +30 очень
душно
1003.2 983.4
23 12.12 ЮЗ 13 н/о н/о +23.8 +13.6 53 +26 +26 жарко 1003.2 983.4
00 13.12 ЮЗ 12 н/о н/о +25.3 +12.9 46 +27 +27 жарко 1003.7 983.9
02 13.12 ЮЗ 11 н/о н/о +27.7 +8.6 30 +28 +28 жарко 1003.4 983.6
01 13.12 ЮЗ 11 н/о н/о +26.6 +10.7 37 +27 +27 жарко 1003.8 984.0 +21.7
03 13.12 ЮЗ 11 н/о н/о +28.8 +7.4 26 +28 +28 жарко 1003.0 983.2
04 13.12 ЮЗ 11 н/о н/о +28.9 +5.1 22 +27 +27 жарко 1002.5 982.7
05 13.12 ЮЗ 11 н/о н/о +29.1 -0.1 15 +26 +26 жарко 1002.3 982.5
06 13.12 ЮЗ 12 н/о н/о +28.1 -0.1 16 +26 +26 жарко 1002.0 982.2
08 13.12 ЮЗ 12 н/о н/о +24.7 -0.4 19 +23 +23 комфорт 1002.9 983.1
07 13.12 ЮЗ 12 н/о н/о +27.0 -1.8 15 +25 +25 комфорт 1002.2 982.4
09 13.12 ЮЗ 13 н/о н/о +22.7 -2.1 19 +21 +21 комфорт 1004.3 984.5
10 13.12 ЮЗ 12 н/о н/о +21.2 -2.0 21 +21 +21 комфорт 1005.4 985.5
11 13.12 ЮЗ 11 н/о н/о +20.2 -2.2 22 +19 +19 1006.0 986.1
12 13.12 ЮЗ 11 н/о н/о +19.2 -2.4 23 +18 +18 1006.8 986.9
14 13.12 ЮЗ 9 н/о н/о +17.3 -1.4 28 +16 +16 1006.9 987.0
13 13.12 ЮЗ 11 н/о н/о +18.0 -2.3 25 +17 +17 1007.1 987.2 +32.2
15 13.12 ЮЗ 9 н/о н/о +16.3 0.0 33 +15 +15 1006.7 986.8
16 13.12 ЮЗ 9 н/о н/о +15.4 0.0 35 +14 +14 1006.2 986.3
17 13.12 ЮЗ 8 н/о н/о +14.6 +0.5 38 +13 +13 1005.8 985.9
18 13.12 ЮЗ 8 н/о н/о +13.7 +1.4 43 +11 +11 1006.0 986.1
20 13.12 З 6 н/о н/о +12.7 +1.4 46 +10 +10 1006.5 986.6
19 13.12 ЮЗ 7 н/о н/о +12.8 +0.9 44 +10 +10 1006.1 986.2
21 13.12 ЮЗ 10 н/о н/о +13.5 +1.2 43 +11 +11 1006.4 986.5
22 13.12 ЮЗ 9 н/о н/о +15.4 +0.8 37 +14 +14 1006.2 986.3
23 13.12 З 9 н/о н/о +16.7 +0.4 33 +15 +15 1006.1 986.2
00 14.12 З 9 н/о н/о +18.3 +0.9 31 +17 +17 1005.5 985.6
02 14.12 З 9 н/о н/о +21.3 +1.0 26 +21 +21 комфорт 1003.7 983.9
01 14.12 З 11 н/о н/о +19.4 +1.4 30 +19 +19 1004.7 984.9 +12.5
03 14.12 З 10 н/о н/о +22.6 +0.4 23 +22 +22 комфорт 1002.8 983.0
04 14.12 З 10 н/о н/о +23.3 -0.2 21 +22 +22 комфорт 1002.4 982.6
05 14.12 З 10 н/о н/о +24.4 +1.9 23 +23 +23 комфорт 1001.5 981.7
06 14.12 З 9 н/о н/о +24.1 +2.9 25 +23 +23 комфорт 1001.1 981.3
08 14.12 ЮЗ 10 н/о н/о +21.2 +6.3 38 +22 +22 комфорт 1002.0 982.2
07 14.12 ЮЗ 10 н/о н/о +22.1 +4.2 31 +22 +22 комфорт 1001.5 981.7
09 14.12 З 8 н/о н/о +21.4 +6.1 37 +22 +22 комфорт 1002.3 982.5
10 14.12 З 6 н/о н/о +20.8 +6.4 39 +22 +22 комфорт 1002.7 982.9
11 14.12 СЗ 5 н/о н/о +20.8 +6.0 38 +22 +22 комфорт 1003.1 983.3
12 14.12 ЮЗ 4 н/о н/о +20.5 +7.8 44 +22 +22 комфорт 1003.6 983.8
14 14.12 З 3 н/о н/о +20.1 +9.1 49 +22 +22 комфорт 1003.1 983.3
13 14.12 штиль 0 н/о н/о +19.1 +9.6 54 +20 +20 1003.6 983.8 +25.9
15 14.12 З 4 н/о н/о +19.7 +9.0 50 +21 +21 комфорт 1002.7 982.9
16 14.12 З 7 н/о н/о +19.5 +10.0 54 +20 +20 1002.3 982.5
17 14.12 З 6 н/о н/о +19.1 +9.9 55 +20 +20 1002.2 982.4
18 14.12 З 5 н/о н/о +19.1 +9.9 55 +20 +20 1002.4 982.6
20 14.12 ЮЗ 3 н/о н/о +17.9 +9.0 56 +18 +18 1003.2 983.4
19 14.12 З 3 н/о н/о +18.2 +8.7 54 +18 +18 1002.8 983.0
21 14.12 ЮЗ 5 н/о н/о +19.6 +11.1 58 +21 +21 комфорт 1003.9 984.1
22 14.12 ЮЗ 3 н/о н/о +21.1 +9.0 46 +22 +22 комфорт 1004.8 985.0
23 14.12 З 2 н/о н/о +22.4 +8.5 41 +24 +24 комфорт 1005.2 985.3
00 15.12 ЮЗ 2 н/о н/о +23.8 +8.2 37 +24 +24 комфорт 1005.3 985.4
02 15.12 СЗ 5 н/о н/о +25.1 +8.1 34 +25 +25 комфорт 1004.0 984.2
01 15.12 З 4 н/о н/о +25.0 +8.1 34 +25 +25 комфорт 1004.8 985.0 +17.7
03 15.12 З 6 н/о н/о +27.0 +7.5 29 +27 +27 жарко 1003.4 983.6
04 15.12 З 6 н/о н/о +28.6 +5.5 23 +27 +27 жарко 1003.1 983.3
05 15.12 З 8 н/о н/о +28.2 +5.7 24 +27 +27 жарко 1002.5 982.7
06 15.12 ЮЗ 5 н/о н/о +28.6 +4.8 22 +27 +27 жарко 1002.2 982.4
08 15.12 ЮЗ 5 н/о н/о +28.1 +3.7 21 +27 +27 жарко 1003.0 983.2
07 15.12 З 7 н/о н/о +28.4 +4.0 21 +27 +27 жарко 1002.2 982.4
09 15.12 ЮЗ 6 н/о н/о +26.8 +4.0 23 +26 +26 жарко 1003.6 983.8
10 15.12 ЮЗ 6 н/о н/о +26.0 +4.5 25 +25 +25 комфорт 1004.1 984.3
11 15.12 ЮЗ 5 н/о н/о +25.4 +4.5 26 +25 +25 комфорт 1004.5 984.7
12 15.12 ЮЗ 4 н/о н/о +24.8 +4.5 27 +24 +24 комфорт 1005.1 985.2
14 15.12 ЮВ 2 н/о н/о +22.2 +4.3 31 +22 +22 комфорт 1005.4 985.5
13 15.12 Ю 3 н/о н/о +23.5 +4.0 28 +23 +23 комфорт 1005.5 985.6 +30.4
15 15.12 ЮВ 1 н/о н/о +21.6 +4.7 33 +22 +22 комфорт 1005.2 985.3
16 15.12 штиль 0 н/о н/о +21.2 +5.1 35 +22 +22 комфорт 1004.8 985.0
17 15.12 штиль 0 н/о н/о +20.8 +5.2 36 +21 +21 комфорт 1005.0 985.1
18 15.12 СВ 2 н/о н/о +19.9 +5.2 38 +21 +21 комфорт 1005.5 985.6
20 15.12 С 3 н/о н/о +20.7 +5.1 36 +22 +22 комфорт 1006.9 987.0
19 15.12 С 3 н/о н/о +19.8 +5.1 38 +21 +21 комфорт 1006.1 986.2
21 15.12 С 3 н/о н/о +23.0 +4.5 30 +23 +23 комфорт 1007.6 987.7
22 15.12 С 4 н/о н/о +24.6 +4.4 27 +24 +24 комфорт 1008.0 988.1
23 15.12 С 3 н/о н/о +27.0 +5.3 25 +26 +26 жарко 1008.3 988.4
00 16.12 З 2 н/о н/о +28.0 +6.2 25 +27 +27 жарко 1008.0 988.1
02 16.12 З 3 н/о н/о +29.6 +5.0 21 +28 +28 жарко 1007.0 987.1
01 16.12 С 3 н/о н/о +30.1 +6.7 23 +29 +29 жарко 1007.6 987.7 +19.7
03 16.12 СЗ 3 н/о н/о +31.4 +5.0 19 +29 +29 жарко 1006.1 986.2
04 16.12 З 5 н/о н/о +31.4 +3.4 17 +29 +29 жарко 1005.7 985.8
05 16.12 З 5 н/о н/о +32.9 +3.8 16 +30 +30 жарко 1005.2 985.3
06 16.12 З 5 н/о н/о +33.2 +3.1 15 +30 +30 жарко 1004.3 984.5
08 16.12 СВ 2 н/о н/о +33.0 +2.9 15 +30 +30 жарко 1004.6 984.8
07 16.12 ЮЗ 3 н/о н/о +33.3 +3.2 15 +30 +30 жарко 1004.3 984.5
09 16.12 ЮЗ 4 н/о н/о +32.3 +3.3 16 +30 +30 жарко 1005.2 985.3
10 16.12 Ю 4 н/о н/о +31.2 +3.3 17 +29 +29 жарко 1005.7 985.8
11 16.12 Ю 3 н/о н/о +29.7 +3.6 19 +28 +28 жарко 1006.4 986.5
12 16.12 Ю 3 н/о н/о +28.9 +3.7 20 +27 +27 жарко 1006.9 987.0
14 16.12 ЮЗ 3 н/о н/о +26.3 +4.7 25 +25 +25 комфорт 1007.2 987.3
13 16.12 ЮЗ 3 н/о н/о +27.1 +4.2 23 +26 +26 жарко 1007.3 987.4 +34.5
15 16.12 Ю 3 н/о н/о +25.4 +5.1 27 +25 +25 комфорт 1006.8 986.9
16 16.12 ЮЗ 4 н/о н/о +24.8 +6.1 30 +25 +25 комфорт 1006.8 986.9
17 16.12 ЮЗ 3 н/о н/о +23.9 +5.8 31 +24 +24 комфорт 1006.7 986.8
18 16.12 Ю 3 н/о н/о +23.2 +6.1 33 +24 +24 комфорт 1006.7 986.8
20 16.12 ЮЗ 2 н/о н/о +23.9 +7.1 34 +24 +24 комфорт 1007.9 988.0
19 16.12 Ю 3 н/о н/о +23.4 +6.7 34 +24 +24 комфорт 1007.1 987.2
21 16.12 ЮВ 4 н/о н/о +26.2 +6.8 29 +26 +26 жарко 1008.7 988.8
22 16.12 ЮВ 5 н/о н/о +28.1 +5.6 24 +27 +27 жарко 1009.4 989.5
23 16.12 ЮВ 5 н/о н/о +30.7 +4.4 19 +29 +29 жарко 1009.5 989.6
00 17.12 В 5 н/о н/о +31.8 +3.8 17 +29 +29 жарко 1009.2 989.3
02 17.12 ЮВ 2 н/о н/о +33.5 +3.3 15 +31 +31 жарко 1008.6 988.7
01 17.12 В 2 н/о н/о +32.9 +3.8 16 +30 +30 жарко 1009.0 989.1 +23.3
03 17.12 ЮВ 4 н/о н/о +35.7 +3.0 13 +33 +33 жарко 1007.8 987.9
04 17.12 ЮВ 3 н/о н/о +35.6 +1.8 12 +32 +32 жарко 1007.2 987.3
05 17.12 Ю 4 н/о н/о +35.9 +0.9 11 +32 +32 жарко 1006.5 986.6
06 17.12 ЮВ 4 н/о н/о +36.9 +1.6 11 +33 +33 жарко 1006.0 986.1
07 17.12 ЮВ 5 н/о н/о +36.7 +1.5 11 +33 +33 жарко 1005.9 986.0

 

Местоположение метеостанции Tibooburra Airport (Новый Южный Уэльс, Австралия): широта -29.45 долгота 142.05 высота над уровнем моря 177 м.

В архиве по умолчанию представлена погода в Tibooburra Airport за последнюю неделю. Архивные данные за месяц целиком и за предыдущие месяцы, начиная с января 2011 года, Вы можете получить, выбрав интересующий диапазон дат из раскрывающегося списка и нажав кнопку "Ввод!".


*Определитесь, кто Вы:
робот инопланетянин человек

Внимание! Время в таблицах - всемирное. Для получения местного времени необходимо прибавить поправку, которая в Tibooburra Airport равна 10 ч.

Смотрите также архив погоды в соседних городах и на ближайших метеорологических станциях:

Погода в White Cliffs Aws (Новый Южный Уэльс, Австралия) (184 км)
Погода в Fowlers Gap Aws (Новый Южный Уэльс, Австралия) (184 км)
Погода в Ballera Gas Field (Квинсленд, Австралия) (227 км)
Погода в Moomba Airport (Южная Австралия, Австралия) (235 км)
Погода в Thargomindah Airport (Квинсленд, Австралия) (237 км)
Погода в Wilcannia Aerodrome (Новый Южный Уэльс, Австралия) (263 км)
Погода в Broken Hill Airport (Новый Южный Уэльс, Австралия) (289 км)
Погода в Leigh Creek Airport (Южная Австралия, Австралия) (372 км)
Погода в Bourke Airport Aws (Новый Южный Уэльс, Австралия) (382 км)
Погода в Marree Aero (Южная Австралия, Австралия) (387 км)

Пояснения к столбцам:

Ветер - указаны скорость ветра в м/с - средняя за 10 мин, порывы в срок и между сроками (в фигурных скобках) и направление, откуда дует ветер: С - северный, СВ - северо-восточный, В - восточный, ЮВ - юго-восточный, Ю - южный, ЮЗ - юго-западный, З - западный, СЗ - северо-западный.
Видимость - горизонтальная дальность видимости в метрах или километрах. При видимости от 1 до 10 км при отсутствии осадков обычно наблюдается дымка, при ухудшении видимости до 1 км и менее - туман. В сухую погоду видимость может ухудшаться дымом, пылью или мглою.
Явления - указаны атмосферные явления, наблюдавшиеся в срок или в последний час перед сроком; фигурными скобками обозначены явления, наблюдавшиеся между сроками (за 1-3 часа до срока); квадратными скобками обозначены град или гололедные отложения с указанием их диаметра в мм.
Облачность - указаны через наклонную черту общая и нижняя облачность в баллах и высота нижней границы облаков в метрах; квадратными скобками обозначены формы облаков: Ci - перистые, Cs - перисто-слоистые, Cc - перисто-кучевые, Ac - высококучевые, As - высокослоистые, Sc - слоисто-кучевые, Ns - слоисто-дождевые, Cu - кучевые, Cb - кучево-дождевые. Подробнее классификацию облаков см. в Атласе облаков (PDF).
T - Температура воздуха - температура, измеренная на высоте 2 м над землей.
Td - Температура точки росы - температура, при понижении до которой содержащийся в воздухе водяной пар достигнет насыщения.
f - Относительная влажность воздуха - влажноcть воздуха, измеренная на высоте 2 м над землей.
Te - Эффективная температура - температура, которую ощущает одетый по сезону человек в тени. Характеристика душности погоды. При расчете учитывается влияние влажности воздуха и скорости ветра на теплоощущения человека.
Tes - Эффективная температура на солнце - температура, которую ощущает человек, с поправкой на солнечный нагрев. Характеристика знойности погоды. Зависит от высоты солнца над горизонтом, облачности и скорости ветра. Ночью, в пасмурную погоду, а также при ветре 12 м/с и более поправка равна нулю.
P - Атмосферное давление - приведенное к уровню моря атмосферное давление.
Po - Атмосферное давление - измеренное на уровне метеостанции атмосферное давление.
Tmin - Минимальная температура - минимум температуры воздуха на высоте 2 м над землей.
Tmax - Максимальная температура - максимум температуры воздуха на высоте 2 м над землей.
R - Количество осадков - Количество выпавших осадков за период времени, мм. При наведении курсора мыши на число - период времени, за который выпало указанное количество осадков.
R24 - Количество осадков - Количество выпавших осадков за 24 часа, мм.
S - Снежный покров - Высота снежного покрова, см. При наведении курсора мыши на число - состояние снежного покрова и степень покрытия местности в баллах.